[[{"header":{"parameterUnit":"m.s-1","parameterCategory":1,"la1":30.2991,"la2":30.254,"lo1":-89.0895,"lo2":-89.0444,"dy":0.0017,"dx":0.0017,"nx":28,"ny":28,"refTime":"2024-10-10T21:00:00:Z","depth":0,"parameterNumber":2,"parameterNumberName":"U-component_of_WINDS"},"data":[0,0,0,0,0,0,0,0,0,0,0,0,0,0,0,0,0,0,0,0,0,0,0,0,0,0,0,0,0,0,0,0,0,0,0,0,0,0,0,0,0,0,0,0,0,0,0,0,0,0,0,0,0,0,0,0,0,0,-1.5623,-1.5623,0,-1.5613,-1.5613,-1.5613,-1.5541,-1.5539,-1.5537,-1.5536,-1.5528,-1.5529,-1.5531,0,0,0,0,0,0,0,0,0,0,0,0,0,-1.5581,-1.5582,-1.5623,-1.5623,-1.5622,-1.5613,-1.5613,-1.5613,-1.5541,-1.5539,-1.5537,-1.5535,-1.5527,-1.5529,-1.5531,0,0,0,0,0,0,0,0,0,0,0,0,0,-1.5588,-1.5583,-1.5623,-1.5585,-1.5582,-1.5613,-1.5613,-1.5613,-1.5542,-1.5539,-1.5536,-1.5534,-1.5527,-1.5529,-1.5531,-1.5598,0,0,-1.5538,-1.5539,0,0,0,0,0,0,0,0,-1.5588,-1.559,-1.5591,-1.5588,-1.5584,-1.5575,-1.5596,-1.5608,-1.5542,-1.5557,-1.5536,-1.5533,-1.5546,-1.5546,-1.5551,-1.5598,-1.5597,-1.5538,-1.5539,-1.554,-1.5541,0,0,0,0,0,0,0,-1.5588,-1.559,-1.5619,-1.5591,-1.5587,-1.557,-1.5568,-1.5598,-1.5567,-1.5556,-1.555,-1.555,-1.5544,-1.5549,-1.555,-1.5597,-1.5538,-1.554,-1.5541,-1.5542,-1.5701,-1.5704,0,0,0,0,0,0,-1.5592,-1.559,-1.5619,-1.5619,-1.558,-1.5573,-1.5571,-1.5581,-1.5566,-1.5561,-1.5552,-1.5547,-1.5546,-1.5547,-1.5549,-1.5628,-1.554,-1.5542,-1.5543,-1.5698,-1.5702,-1.5705,0,0,0,0,0,0,-1.5592,-1.5595,-1.562,-1.5603,-1.5605,-1.5577,-1.5589,-1.5582,-1.5587,-1.5564,-1.5558,-1.5563,-1.5544,-1.5546,-1.5587,-1.5627,-1.5543,-1.5545,-1.5695,-1.5699,-1.5703,-1.5785,0,0,0,0,0,0,-1.5591,-1.5596,-1.562,-1.5604,-1.5606,-1.5657,-1.5591,-1.5584,-1.5591,-1.5583,-1.5572,-1.5568,-1.5542,-1.5584,-1.5589,-1.5628,-1.5547,-1.5691,-1.5697,-1.5702,-1.5779,-1.5792,-1.5803,0,0,0,0,0,-1.5589,-1.5643,-1.5621,-1.5625,-1.5635,-1.5659,-1.566,-1.5629,-1.5594,-1.5619,-1.5605,-1.5568,-1.5622,-1.5589,-1.5594,-1.5634,-1.5688,-1.5695,-1.5701,-1.5774,-1.579,-1.5803,0,0,0,0,0,0,-1.5664,-1.564,-1.5616,-1.5666,-1.5665,-1.5647,-1.5677,-1.5647,-1.5656,-1.5649,-1.561,-1.5608,-1.5655,-1.5649,-1.5612,-1.5699,-1.5649,-1.5657,-1.5702,-1.5717,-1.5729,-1.573,-1.5549,0,0,0,0,0,-1.5687,-1.5707,-1.5685,-1.5731,-1.5732,-1.5705,-1.5714,-1.569,-1.5688,-1.5687,-1.5675,-1.5675,-1.5692,-1.5704,-1.5718,-1.5778,-1.5775,-1.5808,-1.5821,-1.5831,-1.5838,-1.5871,-1.5886,-1.5726,-1.5726,-1.5726,0,0,-1.5733,-1.5722,-1.5737,-1.5746,-1.5743,-1.5766,-1.5705,-1.5731,-1.5749,-1.5691,-1.5729,-1.5721,-1.5718,-1.577,-1.5791,-1.5765,-1.5882,-1.5839,-1.5847,-1.5849,-1.588,-1.5895,-1.5908,-1.5731,-1.573,-1.5729,0,0,-1.5829,-1.5823,-1.5861,-1.586,-1.5855,-1.5837,-1.5847,-1.5833,-1.5826,-1.5863,-1.5821,-1.5842,-1.5871,-1.5872,-1.5876,-1.5975,-1.5943,-1.5981,-1.6044,-1.6077,-1.609,-1.6101,-1.6138,-1.6151,-1.5988,-1.5989,-1.5989,0,-1.5887,-1.592,-1.5885,-1.5915,-1.5921,-1.5871,-1.5911,-1.5911,-1.5912,-1.5918,-1.5888,-1.5926,-1.592,-1.5972,-1.5996,-1.6001,-1.6012,-1.5982,-1.6091,-1.6101,-1.6111,-1.6146,-1.616,-1.5993,-1.5993,-1.5992,-1.5992,0,-1.5992,-1.6016,-1.6048,-1.605,-1.606,-1.6094,-1.6067,-1.6081,-1.6057,-1.6043,-1.6083,-1.6075,-1.6087,-1.6098,-1.6075,-1.6147,-1.6131,-1.6097,-1.6046,-1.6132,-1.6164,-1.6177,-1.6,-1.5998,-1.5997,-1.5996,0,0,-1.6134,-1.6119,-1.6131,-1.6132,-1.6125,-1.6143,-1.6177,-1.6189,-1.6202,-1.6205,-1.6233,-1.6261,-1.623,-1.6235,-1.6211,-1.624,-1.6322,-1.6203,-1.6202,-1.6226,-1.6403,-1.643,-1.6446,-1.63,-1.6303,-1.6305,-1.6404,0,-1.6228,-1.6283,-1.6255,-1.6314,-1.6337,-1.629,-1.632,-1.632,-1.6308,-1.6326,-1.6312,-1.6333,-1.6289,-1.6292,-1.6319,-1.6306,-1.6357,-1.6299,-1.6328,-1.6329,-1.633,-1.6462,-1.6489,-1.6583,-1.6416,-1.6418,-1.642,0,-1.6344,-1.6352,-1.6414,-1.6405,-1.6413,-1.644,-1.645,-1.6467,-1.6467,-1.6456,-1.6463,-1.6434,-1.6468,-1.6417,-1.6464,-1.6425,-1.6436,-1.6432,-1.6435,-1.6436,-1.638,-1.6469,-1.6612,-1.6627,-1.6439,-1.6437,-1.6436,0,-1.6443,-1.647,-1.6511,-1.6513,-1.6503,-1.6523,-1.652,-1.6517,-1.6527,-1.6536,-1.6543,-1.6556,-1.6563,-1.6575,-1.6551,-1.6516,-1.6603,-1.6549,-1.6596,-1.6597,-1.6616,-1.6616,-1.6765,-1.6622,-1.6622,-1.6622,-1.6621,0,-1.655,-1.6591,-1.6555,-1.6581,-1.6625,-1.6593,-1.6638,-1.663,-1.6628,-1.6652,-1.6613,-1.6637,-1.6603,-1.6624,-1.6606,-1.6649,-1.6652,-1.6646,-1.6641,-1.665,-1.6651,-1.6656,-1.6649,-1.6625,-1.6625,-1.6624,-1.6623,0,-1.6668,-1.6646,-1.6688,-1.6675,-1.6673,-1.6707,-1.6696,-1.672,-1.6706,-1.6738,-1.6743,-1.6722,-1.6745,-1.6722,-1.6743,-1.6731,-1.6789,-1.6774,-1.6789,-1.6785,-1.6834,-1.683,-1.6993,-1.7013,-1.6857,-1.6858,-1.6859,0,-1.6738,-1.6768,-1.676,-1.6773,-1.6772,-1.6794,-1.6804,-1.6774,-1.6787,-1.679,-1.6814,-1.6834,-1.6848,-1.6887,-1.6874,-1.6891,-1.6877,-1.6933,-1.6879,-1.6888,-1.6879,-1.6878,-1.6882,-1.6944,-1.6946,-1.6947,-1.6948,0,-1.6866,-1.6854,-1.687,-1.6884,-1.6897,-1.6906,-1.6912,-1.6926,-1.6895,-1.6912,-1.6934,-1.6946,-1.6968,-1.6989,-1.7002,-1.7,-1.697,-1.6965,-1.6977,-1.6987,-1.6996,-1.6993,-1.682,-1.6962,-1.696,-1.6959,-1.6959,-1.6958,-1.6963,-1.6988,-1.6987,-1.7007,-1.7008,-1.7016,-1.7038,-1.7027,-1.7046,-1.7062,-1.7043,-1.7072,-1.7073,-1.7088,-1.709,-1.7113,-1.709,-1.7107,-1.7111,-1.7116,-1.7124,-1.6992,-1.7115,-1.7115,-1.7115,-1.7114,-1.7114,0,-1.709,-1.7087,-1.7106,-1.7116,-1.7132,-1.7102,-1.7108,-1.7124,-1.715,-1.7153,-1.7168,-1.7196,-1.7217,-1.7206,-1.7225,-1.7246,-1.7232,-1.7251,-1.725,-1.725,-1.7143,-1.7132,-1.7262,-1.7262,-1.7262,-1.7262,-1.7262,-1.7262,-1.7158,-1.72,-1.7188,-1.7231,-1.7228,-1.7256,-1.7262,-1.727,-1.7272,-1.7305,-1.7322,-1.7315,-1.7314,-1.7332,-1.735,-1.7347,-1.7356,-1.738,-1.7372,-1.7272,-1.7258,-1.7244,-1.7233,-1.7382,-1.7382,-1.7477,-1.7478,-1.7479]},{"header":{"parameterUnit":"m.s-1","parameterCategory":1,"la1":30.2991,"la2":30.254,"lo1":-89.0895,"lo2":-89.0444,"dy":0.0017,"dx":0.0017,"nx":28,"ny":28,"refTime":"2024-10-10T21:00:00:Z","depth":0,"parameterNumber":3,"parameterNumberName":"V-component_of_WINDS"},"data":[0,0,0,0,0,0,0,0,0,0,0,0,0,0,0,0,0,0,0,0,0,0,0,0,0,0,0,0,0,0,0,0,0,0,0,0,0,0,0,0,0,0,0,0,0,0,0,0,0,0,0,0,0,0,0,0,0,0,-0.4003,-0.4003,0,-0.4013,-0.4013,-0.4013,-0.4009,-0.4009,-0.4008,-0.4008,-0.4019,-0.4019,-0.402,0,0,0,0,0,0,0,0,0,0,0,0,0,-0.3981,-0.3982,-0.4003,-0.4003,-0.4003,-0.4013,-0.4013,-0.4013,-0.4009,-0.4009,-0.4008,-0.4008,-0.4019,-0.4019,-0.402,0,0,0,0,0,0,0,0,0,0,0,0,0,-0.3991,-0.3982,-0.4003,-0.4002,-0.4002,-0.4013,-0.4013,-0.4013,-0.4009,-0.4009,-0.4008,-0.4008,-0.4018,-0.4019,-0.402,-0.4032,0,0,-0.4022,-0.4022,0,0,0,0,0,0,0,0,-0.399,-0.3992,-0.4002,-0.4002,-0.4002,-0.4009,-0.4009,-0.4019,-0.4009,-0.4006,-0.4008,-0.4008,-0.4016,-0.4017,-0.4019,-0.4032,-0.4033,-0.4022,-0.4023,-0.4023,-0.4023,0,0,0,0,0,0,0,-0.399,-0.3991,-0.4007,-0.4002,-0.4002,-0.4002,-0.4003,-0.4011,-0.4013,-0.4007,-0.4006,-0.4008,-0.4016,-0.4019,-0.402,-0.4033,-0.4022,-0.4023,-0.4023,-0.4024,-0.4057,-0.4057,0,0,0,0,0,0,-0.3989,-0.3991,-0.4007,-0.4007,-0.3995,-0.4002,-0.4003,-0.4007,-0.4013,-0.4013,-0.4008,-0.4007,-0.4018,-0.4019,-0.402,-0.4035,-0.4023,-0.4024,-0.4024,-0.4057,-0.4057,-0.4058,0,0,0,0,0,0,-0.3988,-0.399,-0.4006,-0.3999,-0.4001,-0.4003,-0.4008,-0.4008,-0.4011,-0.4014,-0.4014,-0.401,-0.4017,-0.4019,-0.4029,-0.4036,-0.4024,-0.4025,-0.4056,-0.4057,-0.4057,-0.4065,0,0,0,0,0,0,-0.3988,-0.399,-0.3995,-0.3999,-0.4001,-0.4015,-0.4008,-0.4008,-0.4012,-0.4011,-0.4016,-0.4017,-0.4017,-0.4028,-0.403,-0.4036,-0.4025,-0.4056,-0.4056,-0.4057,-0.4065,-0.4066,-0.4068,0,0,0,0,0,-0.3987,-0.3996,-0.3995,-0.3997,-0.4007,-0.4015,-0.4016,-0.4017,-0.4012,-0.4017,-0.4019,-0.4017,-0.4034,-0.4029,-0.4031,-0.4038,-0.4055,-0.4056,-0.4057,-0.4064,-0.4066,-0.4068,0,0,0,0,0,0,-0.3992,-0.3997,-0.3995,-0.4006,-0.401,-0.4014,-0.402,-0.4018,-0.4024,-0.4023,-0.4023,-0.4024,-0.4035,-0.4037,-0.4031,-0.405,-0.4044,-0.4046,-0.4049,-0.4051,-0.4052,-0.4052,-0.4026,0,0,0,0,0,-0.3995,-0.4001,-0.4005,-0.4014,-0.4016,-0.4018,-0.4021,-0.4021,-0.4026,-0.4027,-0.403,-0.4035,-0.4042,-0.4046,-0.4052,-0.4065,-0.4066,-0.4071,-0.4072,-0.4073,-0.4075,-0.4083,-0.4085,-0.4061,-0.4061,-0.4061,0,0,-0.4,-0.4003,-0.4007,-0.4015,-0.4018,-0.4025,-0.4019,-0.4027,-0.4032,-0.4029,-0.4039,-0.4041,-0.4046,-0.4058,-0.4063,-0.406,-0.4082,-0.4075,-0.4076,-0.4077,-0.4084,-0.4087,-0.4089,-0.4061,-0.4061,-0.4061,0,0,-0.4013,-0.4015,-0.4024,-0.4027,-0.4033,-0.4034,-0.4036,-0.404,-0.4042,-0.4052,-0.405,-0.4056,-0.4068,-0.4072,-0.4075,-0.4091,-0.4089,-0.4093,-0.4101,-0.4109,-0.4111,-0.4113,-0.412,-0.4122,-0.4094,-0.4094,-0.4094,0,-0.4018,-0.4029,-0.4028,-0.4037,-0.4041,-0.4038,-0.4047,-0.405,-0.4057,-0.406,-0.4057,-0.4072,-0.4075,-0.4088,-0.4092,-0.4094,-0.4097,-0.4093,-0.4111,-0.4113,-0.4114,-0.4121,-0.4123,-0.4095,-0.4095,-0.4095,-0.4095,0,-0.4036,-0.4043,-0.405,-0.4057,-0.4062,-0.407,-0.4072,-0.4076,-0.4076,-0.4078,-0.4088,-0.4092,-0.41,-0.4103,-0.4102,-0.4116,-0.4114,-0.4111,-0.4105,-0.4117,-0.4123,-0.4126,-0.4095,-0.4095,-0.4095,-0.4095,0,0,-0.4053,-0.406,-0.4063,-0.4067,-0.4072,-0.4078,-0.4087,-0.4094,-0.4099,-0.4104,-0.4112,-0.4122,-0.4119,-0.4123,-0.4123,-0.4129,-0.4143,-0.4125,-0.4125,-0.413,-0.4161,-0.4164,-0.4167,-0.4142,-0.4142,-0.4143,-0.4161,0,-0.4067,-0.4083,-0.4083,-0.4097,-0.4105,-0.4102,-0.411,-0.4115,-0.4117,-0.4124,-0.4126,-0.4133,-0.4128,-0.4131,-0.4137,-0.414,-0.415,-0.4139,-0.415,-0.4151,-0.415,-0.417,-0.4174,-0.4191,-0.4163,-0.4163,-0.4164,0,-0.4086,-0.4092,-0.4108,-0.4113,-0.4117,-0.4124,-0.4131,-0.4137,-0.4143,-0.4144,-0.4149,-0.4148,-0.4158,-0.4151,-0.4164,-0.4157,-0.4162,-0.4164,-0.4164,-0.4167,-0.4159,-0.4174,-0.4196,-0.4199,-0.4167,-0.4167,-0.4167,0,-0.4098,-0.411,-0.4121,-0.4125,-0.4131,-0.4137,-0.414,-0.4145,-0.415,-0.4156,-0.416,-0.4167,-0.4171,-0.4177,-0.4179,-0.4173,-0.4193,-0.4186,-0.4195,-0.4195,-0.4201,-0.42,-0.4225,-0.4201,-0.4201,-0.4201,-0.4201,0,-0.4115,-0.4125,-0.4127,-0.4134,-0.4145,-0.4146,-0.4157,-0.4159,-0.4164,-0.4172,-0.417,-0.4178,-0.4178,-0.4186,-0.4187,-0.4199,-0.4201,-0.4203,-0.4203,-0.4204,-0.4204,-0.4208,-0.4207,-0.4202,-0.4202,-0.4202,-0.4201,0,-0.4131,-0.4133,-0.4145,-0.4151,-0.4152,-0.4161,-0.4166,-0.4173,-0.4174,-0.4184,-0.4187,-0.419,-0.4199,-0.4201,-0.4212,-0.4212,-0.4228,-0.4226,-0.4226,-0.4226,-0.4236,-0.4236,-0.4265,-0.427,-0.4242,-0.4242,-0.4242,0,-0.4142,-0.415,-0.4157,-0.4162,-0.4165,-0.4173,-0.4179,-0.4179,-0.4185,-0.4193,-0.4199,-0.4208,-0.4216,-0.4231,-0.4234,-0.4243,-0.4242,-0.4252,-0.4244,-0.4244,-0.4244,-0.4244,-0.4246,-0.4254,-0.4254,-0.4254,-0.4255,0,-0.4162,-0.4163,-0.4171,-0.4179,-0.4185,-0.4192,-0.4198,-0.4202,-0.4204,-0.4211,-0.422,-0.4226,-0.4237,-0.4247,-0.4256,-0.4259,-0.4258,-0.4257,-0.426,-0.4261,-0.4262,-0.4263,-0.4232,-0.4257,-0.4257,-0.4256,-0.4256,-0.4256,-0.4177,-0.4184,-0.4191,-0.4199,-0.4204,-0.421,-0.4218,-0.4221,-0.4229,-0.4239,-0.4238,-0.4249,-0.4256,-0.4267,-0.4271,-0.428,-0.4278,-0.4281,-0.4283,-0.4284,-0.4286,-0.4259,-0.4282,-0.4282,-0.4282,-0.4282,-0.4282,0,-0.4198,-0.4202,-0.421,-0.422,-0.4227,-0.4225,-0.4232,-0.4238,-0.4248,-0.4254,-0.4261,-0.4273,-0.4283,-0.4287,-0.4297,-0.4303,-0.4303,-0.4306,-0.4306,-0.4307,-0.4287,-0.4284,-0.4306,-0.4306,-0.4306,-0.4306,-0.4306,-0.4306,-0.421,-0.4223,-0.4225,-0.424,-0.4244,-0.4255,-0.4259,-0.4265,-0.427,-0.4284,-0.4292,-0.4295,-0.43,-0.431,-0.4319,-0.432,-0.4325,-0.4328,-0.4329,-0.4311,-0.4308,-0.4306,-0.4304,-0.4329,-0.4329,-0.4349,-0.4349,-0.4349]}]]